TimePST,TemperatureF,Dew PointF,Humidity,Sea Level PressureIn,VisibilityMPH,Wind Direction,Wind SpeedMPH,Gust SpeedMPH,PrecipitationIn,Events,Conditions,WindDirDegrees,DateUTC
1:53 AM,55.9,48.9,77,30.43,10.0,WSW,6.9,-,N/A,,Overcast,240,2013-03-01 09:53:00
2:53 AM,55.9,48.0,75,30.43,10.0,SW,5.8,-,N/A,,Overcast,230,2013-03-01 10:53:00
3:23 AM,55.4,48.2,77,30.43,10.0,SW,9.2,-,N/A,,Overcast,230,2013-03-01 11:23:00
4:38 AM,55.4,48.2,77,30.43,10.0,SW,3.5,-,N/A,,Overcast,230,2013-03-01 12:38:00
4:53 AM,55.0,48.0,77,30.43,10.0,Calm,Calm,-,N/A,,Overcast,0,2013-03-01 12:53:00
5:18 AM,55.4,48.2,77,30.43,10.0,SW,3.5,-,N/A,,Overcast,220,2013-03-01 13:18:00
5:53 AM,55.0,48.0,77,30.43,10.0,SW,4.6,-,N/A,,Overcast,220,2013-03-01 13:53:00
6:17 AM,55.4,48.2,77,30.43,10.0,SW,3.5,-,N/A,,Overcast,220,2013-03-01 14:17:00
6:53 AM,55.0,48.9,80,30.43,10.0,Calm,Calm,-,N/A,,Overcast,0,2013-03-01 14:53:00
7:53 AM,55.9,48.9,77,30.45,10.0,WSW,3.5,-,N/A,,Overcast,250,2013-03-01 15:53:00
8:53 AM,55.9,48.9,77,30.45,10.0,SSW,5.8,-,N/A,,Mostly Cloudy,210,2013-03-01 16:53:00
9:53 AM,57.0,48.9,74,30.44,10.0,SW,8.1,-,N/A,,Mostly Cloudy,220,2013-03-01 17:53:00
10:53 AM,57.9,48.9,72,30.43,10.0,SSW,6.9,-,N/A,,Overcast,210,2013-03-01 18:53:00
11:53 AM,60.1,48.9,67,30.43,10.0,SSW,9.2,-,N/A,,Scattered Clouds,210,2013-03-01 19:53:00
12:53 PM,61.0,48.0,62,30.41,10.0,WSW,9.2,-,N/A,,Mostly Cloudy,250,2013-03-01 20:53:00
1:38 PM,59.0,48.2,67,30.40,10.0,West,5.8,-,N/A,,Overcast,260,2013-03-01 21:38:00
1:53 PM,60.1,48.0,64,30.40,10.0,WSW,6.9,-,N/A,,Overcast,250,2013-03-01 21:53:00
2:53 PM,60.1,48.0,64,30.38,10.0,SW,3.5,-,N/A,,Overcast,230,2013-03-01 22:53:00
3:53 PM,61.0,48.0,62,30.37,10.0,SSW,5.8,-,N/A,,Clear,210,2013-03-01 23:53:00
4:53 PM,61.0,46.9,60,30.35,10.0,Calm,Calm,-,N/A,,Clear,0,2013-03-02 00:53:00
5:53 PM,57.9,48.9,72,30.35,10.0,Calm,Calm,-,N/A,,Overcast,0,2013-03-02 01:53:00
6:53 PM,55.9,48.9,77,30.33,10.0,East,4.6,-,N/A,,Overcast,90,2013-03-02 02:53:00
7:53 PM,55.0,48.9,80,30.33,10.0,ENE,4.6,-,N/A,,Overcast,70,2013-03-02 03:53:00
8:53 PM,53.1,48.9,86,30.32,10.0,East,3.5,-,N/A,,Overcast,80,2013-03-02 04:53:00
9:53 PM,53.1,48.0,83,30.33,10.0,East,4.6,-,N/A,,Overcast,80,2013-03-02 05:53:00
10:53 PM,52.0,48.0,86,30.33,10.0,Calm,Calm,-,N/A,,Overcast,0,2013-03-02 06:53:00
11:53 PM,51.1,46.9,86,30.31,10.0,Calm,Calm,-,N/A,,Overcast,0,2013-03-02 07:53:00